Vorticity
5 4 4 10 13 12 15 11 5 8 12 11 17 22 34 35 27 29 29 29 26 24 19 10 11 12 18 20 21 4 9 5 4 15 15 6 6 16 20 16 11 8 4
13 1 1 9 14 10 9 9 7 7 9 20 34 26 25 31 31 22 18 8 9 9 14 12 13 12 7 7 7 17 27 26 29 11 6 -0 3 3 -1 6 -7 -1 -1
13 3 -4 -4 9 14 10 10 9 8 28 29 27 31 26 19 18 16 19 12 8 12 9 5 5 8 9 12 11 10 16 17 18 19 21 25 25 27 26 28 29 30 23
11 7 1 -6 2 5 11 10 14 26 30 29 27 16 12 12 13 14 12 9 8 8 10 12 14 15 15 15 15 14 11 12 12 13 14 13 12 12 13 13 14 15 15
9 -4 -1 11 8 13 14 19 39 35 28 16 10 8 10 14 16 14 14 15 16 15 15 16 15 13 13 12 10 9 11 10 12 13 13 15 15 16 17 16 16 15 14
12 9 6 5 17 16 25 34 29 17 9 14 14 13 11 9 9 8 8 8 8 8 8 7 9 11 12 11 11 9 5 11 14 14 17 17 15 17 23 26 28 29 28
3 3 13 20 12 23 30 34 15 11 12 8 9 10 11 12 13 13 12 11 10 10 11 11 8 7 6 7 8 8 15 15 16 15 15 28 29 21 15 15 17 17 25
12 11 18 16 16 32 31 15 11 10 9 8 9 12 13 15 17 17 19 20 21 20 17 14 11 12 14 14 16 13 16 18 23 30 21 6 5 8 11 12 11 7 4
10 17 21 18 24 25 19 12 10 8 8 7 10 14 19 19 18 18 19 20 20 20 23 25 23 18 14 14 14 18 27 19 6 7 16 23 25 20 17 16 18 19 20
22 16 14 21 21 20 13 11 8 9 6 9 15 20 22 20 17 17 20 22 23 25 24 21 23 24 23 18 17 31 6 13 18 13 20 21 31 25 17 14 15 24 28
12 13 14 18 25 13 11 7 9 10 6 13 20 21 17 16 18 18 18 19 24 28 26 22 22 22 19 22 19 11 17 18 23 21 22 22 22 24 21 17 13 9 6
12 18 22 20 17 13 8 8 13 6 10 18 23 21 20 17 17 16 18 20 24 26 25 25 24 22 18 11 12 12 15 5 9 12 9 9 11 11 11 11 8 6 7
18 17 14 21 13 9 6 11 10 7 13 25 23 21 16 17 19 17 18 23 26 27 29 23 14 10 7 8 16 14 9 6 9 12 12 16 19 19 15 15 14 10 9
21 13 18 15 14 5 6 14 7 9 21 25 20 17 20 20 21 20 24 27 30 27 15 14 10 10 17 19 16 9 12 8 6 9 12 13 15 19 23 28 33 33 34
8 17 20 14 7 3 8 14 5 11 27 20 20 19 23 14 14 17 21 29 24 16 12 14 9 17 19 17 5 7 8 7 8 4 3 5 7 13 15 19 27 25 27
28 23 15 11 3 2 12 11 6 14 26 15 13 19 12 13 17 25 20 28 14 6 10 7 13 21 12 13 4 9 5 6 6 3 7 6 5 4 8 14 23 26 13
24 15 16 4 1 4 13 9 8 14 25 12 12 17 15 20 24 14 32 13 7 6 14 9 15 18 9 9 8 6 6 5 6 7 5 5 6 5 5 6 14 24 31
13 16 7 1 1 7 12 10 10 14 23 13 11 15 20 24 20 12 28 9 5 8 14 11 12 12 10 9 10 6 7 6 6 6 6 4 5 4 3 3 4 12 23
7 16 3 1 2 10 11 9 10 15 18 15 12 14 21 24 9 23 19 7 4 6 11 14 10 11 11 10 10 10 9 8 6 5 5 5 5 5 6 7 6 5 10
17 8 2 1 3 12 9 9 10 16 12 19 12 14 18 23 10 28 17 7 4 3 10 10 12 12 12 12 11 9 9 8 6 5 6 6 5 8 7 7 9 7 6
14 5 3 3 6 11 9 9 11 17 11 18 15 12 18 25 9 21 22 8 5 3 3 7 8 11 13 13 13 11 9 8 7 7 7 9 10 7 7 5 7 8 6
10 4 4 5 10 8 8 10 15 16 13 10 21 11 16 21 15 10 33 10 8 5 4 3 5 5 5 6 5 6 10 10 10 10 9 8 7 7 5 5 7 9 7
9 6 7 8 8 7 10 14 16 14 15 9 14 19 11 18 22 12 11 32 9 7 7 6 3 3 3 3 4 5 5 6 7 6 7 8 9 9 7 6 6 8 7
9 8 8 10 7 6 15 20 15 13 11 15 8 18 16 14 18 18 14 11 32 11 6 7 6 6 3 3 2 3 3 4 4 5 5 5 6 8 11 8 8 7 7
8 11 11 7 4 3 15 21 16 12 13 15 8 14 21 11 17 16 16 16 10 32 17 7 7 6 7 6 5 5 4 5 5 5 5 5 4 7 8 11 9 8 7
13 13 8 5 6 5 8 23 17 12 12 14 10 12 20 18 9 19 15 15 16 13 23 24 12 7 7 7 7 7 7 7 6 6 6 6 6 8 10 11 12 9 10
Height
5652 5643 5633 5624 5613 5603 5592 5581 5570 5560 5547 5535 5522 5509 5496 5486 5479 5472 5466 5463 5459 5456 5454 5452 5452 5451 5451 5451 5451 5451 5451 5450 5453 5458 5459 5462 5464 5466 5469 5471 5475 5479 5482
5636 5626 5616 5605 5594 5583 5572 5560 5547 5534 5520 5506 5492 5482 5473 5466 5460 5454 5450 5447 5444 5441 5439 5438 5437 5435 5435 5435 5434 5434 5433 5433 5432 5436 5442 5444 5446 5448 5449 5452 5453 5456 5460
5619 5609 5597 5585 5572 5560 5549 5536 5523 5507 5493 5482 5471 5463 5456 5450 5445 5440 5436 5433 5430 5427 5424 5423 5421 5420 5419 5418 5418 5418 5418 5417 5416 5415 5424 5424 5425 5428 5430 5431 5432 5434 5436
5601 5589 5577 5566 5553 5540 5527 5515 5500 5487 5474 5464 5457 5449 5443 5438 5433 5428 5423 5419 5416 5413 5410 5407 5405 5404 5403 5402 5402 5403 5402 5402 5400 5398 5402 5407 5404 5406 5408 5411 5412 5412 5416
5583 5571 5558 5546 5532 5519 5504 5489 5477 5465 5457 5450 5443 5436 5430 5424 5419 5415 5410 5405 5401 5398 5395 5392 5390 5390 5389 5388 5388 5388 5387 5386 5384 5382 5383 5386 5386 5385 5386 5387 5389 5390 5394
5564 5550 5538 5526 5513 5501 5486 5474 5463 5454 5446 5438 5431 5424 5417 5410 5406 5400 5396 5392 5388 5384 5381 5378 5376 5376 5375 5374 5374 5373 5372 5370 5368 5365 5366 5368 5366 5364 5365 5366 5367 5368 5373
5544 5532 5521 5508 5495 5483 5470 5458 5449 5442 5434 5426 5419 5411 5403 5395 5390 5384 5379 5374 5371 5368 5365 5362 5361 5361 5361 5360 5360 5359 5357 5355 5353 5350 5350 5350 5349 5348 5349 5349 5349 5350 5352
5528 5515 5503 5491 5479 5467 5457 5447 5438 5430 5422 5414 5404 5395 5386 5377 5371 5364 5359 5355 5351 5348 5346 5345 5345 5345 5345 5346 5346 5345 5344 5342 5339 5337 5338 5339 5338 5336 5336 5336 5337 5338 5340
5511 5498 5485 5474 5463 5453 5445 5436 5428 5419 5409 5399 5390 5380 5370 5361 5354 5347 5342 5338 5334 5331 5328 5327 5327 5329 5331 5333 5333 5334 5332 5330 5329 5328 5326 5326 5325 5323 5322 5322 5324 5323 5325
5492 5481 5470 5460 5449 5441 5434 5426 5417 5407 5398 5387 5376 5365 5356 5347 5339 5333 5327 5322 5319 5315 5312 5311 5312 5315 5319 5321 5323 5324 5324 5323 5322 5319 5317 5315 5313 5312 5311 5312 5312 5312 5312
5477 5467 5456 5447 5438 5430 5423 5415 5406 5396 5387 5375 5363 5353 5344 5335 5327 5321 5315 5310 5306 5303 5300 5300 5301 5305 5309 5312 5315 5316 5317 5316 5315 5313 5311 5308 5306 5305 5304 5304 5304 5303 5303
5463 5453 5444 5436 5428 5420 5413 5404 5395 5385 5375 5363 5352 5342 5333 5325 5318 5311 5305 5300 5295 5292 5291 5292 5295 5299 5303 5306 5308 5310 5311 5312 5310 5309 5306 5304 5302 5300 5299 5297 5295 5294 5293
5450 5441 5434 5425 5418 5411 5403 5395 5385 5375 5364 5352 5342 5333 5324 5316 5309 5303 5297 5293 5289 5287 5287 5289 5293 5296 5299 5301 5303 5306 5308 5308 5307 5305 5303 5300 5298 5295 5292 5289 5286 5284 5282
5437 5430 5423 5416 5409 5402 5394 5386 5377 5366 5354 5344 5335 5326 5318 5310 5303 5297 5292 5289 5286 5286 5287 5290 5292 5294 5296 5298 5301 5303 5304 5304 5303 5302 5300 5298 5295 5291 5287 5282 5277 5273 5270
5424 5418 5413 5407 5401 5394 5386 5378 5367 5358 5347 5337 5329 5320 5313 5306 5300 5294 5291 5288 5286 5287 5289 5290 5291 5292 5294 5296 5299 5301 5302 5301 5301 5300 5299 5297 5294 5290 5284 5278 5272 5267 5264
5411 5407 5403 5398 5393 5386 5378 5370 5362 5350 5340 5332 5324 5316 5309 5303 5297 5293 5290 5288 5288 5289 5290 5290 5291 5291 5293 5295 5298 5299 5300 5300 5299 5299 5298 5295 5292 5288 5283 5277 5271 5265 5262
5400 5398 5395 5391 5386 5380 5372 5363 5354 5344 5335 5328 5320 5313 5306 5300 5295 5292 5291 5290 5290 5290 5290 5291 5291 5292 5293 5295 5297 5298 5298 5298 5297 5297 5296 5294 5291 5287 5283 5278 5272 5266 5260
5392 5391 5388 5385 5380 5374 5366 5357 5349 5340 5332 5324 5317 5309 5303 5298 5295 5292 5291 5292 5292 5292 5291 5291 5292 5292 5293 5294 5296 5297 5297 5296 5296 5295 5294 5292 5290 5287 5283 5279 5274 5268 5262
5386 5385 5382 5379 5374 5368 5360 5352 5344 5336 5328 5321 5313 5307 5301 5297 5295 5292 5292 5292 5292 5292 5292 5292 5292 5292 5293 5293 5294 5295 5295 5294 5294 5293 5292 5290 5288 5285 5282 5278 5275 5270 5264
5381 5380 5377 5374 5369 5362 5354 5347 5339 5332 5325 5318 5312 5305 5300 5296 5294 5292 5291 5292 5292 5292 5292 5291 5291 5292 5292 5292 5292 5292 5292 5292 5291 5291 5289 5288 5286 5284 5281 5278 5275 5271 5267
5378 5376 5373 5368 5363 5356 5349 5342 5335 5328 5321 5315 5309 5304 5298 5294 5292 5290 5289 5290 5290 5291 5291 5291 5291 5290 5290 5290 5290 5291 5290 5290 5289 5288 5287 5285 5284 5282 5280 5277 5274 5271 5268
5374 5371 5368 5363 5357 5351 5344 5337 5330 5323 5318 5312 5306 5301 5296 5292 5290 5288 5287 5287 5287 5288 5288 5289 5289 5289 5289 5289 5288 5289 5288 5287 5286 5285 5284 5283 5281 5279 5277 5275 5273 5271 5268
5370 5366 5362 5358 5352 5346 5339 5332 5325 5319 5314 5308 5303 5298 5294 5290 5287 5285 5283 5283 5283 5284 5284 5285 5285 5286 5286 5286 5286 5286 5286 5285 5283 5282 5281 5280 5278 5276 5275 5273 5271 5269 5267
5366 5362 5357 5353 5347 5341 5334 5326 5320 5315 5310 5305 5300 5295 5291 5287 5283 5281 5279 5278 5278 5278 5279 5280 5280 5281 5281 5282 5282 5282 5281 5280 5279 5278 5277 5276 5274 5273 5271 5269 5268 5266 5265
5361 5357 5352 5348 5343 5336 5329 5322 5316 5311 5305 5301 5296 5292 5287 5283 5280 5277 5275 5274 5273 5272 5273 5274 5274 5275 5275 5276 5276 5276 5275 5274 5274 5273 5272 5270 5269 5268 5266 5264 5263 5262 5261
5356 5351 5347 5343 5338 5332 5325 5318 5311 5306 5301 5296 5292 5287 5283 5280 5277 5274 5271 5269 5268 5267 5266 5266 5267 5268 5268 5269 5269 5268 5268 5267 5267 5266 5265 5264 5263 5261 5260 5258 5257 5256 5255